| time (UTC) | temp F | wind direction | speed knots | gust knots | rain 1hr in | rain 24hr in | rain mn in | humidity % | barometer mb |
| 20260505022515 | 37 | 0.0 | 0.0 | 0.02 | 0.03 | 0.03 | 83 | 1010.8 | |
| 20260505021515 | 38 | 203 | 0.9 | 3.5 | 0.00 | 0.01 | 0.01 | 83 | 1010.7 |
| 20260505020515 | 38 | 0.0 | 0.0 | 0.00 | 0.01 | 0.01 | 81 | 1010.8 | |
| 20260505015517 | 38 | 0.0 | 2.6 | 0.00 | 0.01 | 0.01 | 81 | 1010.4 | |
| 20260505014517 | 38 | 203 | 0.9 | 3.5 | 0.00 | 0.01 | 0.01 | 81 | 1010.5 |
| 20260505013517 | 39 | 203 | 0.9 | 3.5 | 0.00 | 0.01 | 0.01 | 80 | 1010.5 |
| 20260505012517 | 39 | 203 | 0.9 | 3.5 | 0.00 | 0.01 | 0.01 | 80 | 1010.4 |
| 20260505011517 | 39 | 0.0 | 1.7 | 0.00 | 0.01 | 0.01 | 80 | 1010.6 | |
| 20260505010517 | 40 | 203 | 1.7 | 7.8 | 0.00 | 0.01 | 0.01 | 78 | 1010.5 |
| 20260505005517 | 40 | 225 | 1.7 | 5.2 | 0.00 | 0.01 | 0.01 | 77 | 1010.4 |
| 20260505004517 | 40 | 203 | 0.9 | 3.5 | 0.00 | 0.01 | 0.01 | 78 | 1010.5 |
| 20260505003517 | 39 | 248 | 2.6 | 8.7 | 0.00 | 0.01 | 0.01 | 79 | 1010.6 |
| 20260505002517 | 39 | 270 | 4.3 | 7.8 | 0.01 | 0.01 | 0.01 | 79 | 1010.4 |
| 20260505001537 | 39 | 248 | 4.3 | 8.7 | 0.01 | 0.01 | 0.01 | 77 | 1010.3 |
| 20260505000517 | 40 | 248 | 2.6 | 7.8 | 0.01 | 0.01 | 0.01 | 77 | 1010.6 |
| 20260504235517 | 40 | 225 | 2.6 | 7.8 | 0.01 | 0.01 | 0.01 | 77 | 1011.3 |
| 20260504234517 | 40 | 248 | 2.6 | 7.0 | 0.01 | 0.01 | 0.01 | 78 | 1011.3 |
| 20260504233517 | 41 | 225 | 1.7 | 3.5 | 0.01 | 0.01 | 0.01 | 74 | 1011.1 |
| 20260504232517 | 43 | 225 | 0.9 | 3.5 | 0.00 | 0.00 | 0.00 | 67 | 1011.8 |
| 20260504231537 | 44 | 180 | 1.7 | 5.2 | 0.00 | 0.00 | 0.00 | 64 | 1012.2 |
| 20260504230516 | 44 | 180 | 1.7 | 6.1 | 0.00 | 0.00 | 0.00 | 62 | 1012.1 |
| 20260504225516 | 44 | 158 | 4.3 | 7.8 | 0.00 | 0.00 | 0.00 | 63 | 1011.8 |
| 20260504224517 | 43 | 158 | 3.5 | 9.6 | 0.00 | 0.00 | 0.00 | 64 | 1011.3 |
| 20260504223517 | 43 | 158 | 6.1 | 10.4 | 0.00 | 0.00 | 0.00 | 62 | 1011.4 |
| 20260504222516 | 44 | 135 | 5.2 | 12.2 | 0.00 | 0.00 | 0.00 | 57 | 1011.3 |
| 20260504221517 | 45 | 180 | 3.5 | 8.7 | 0.00 | 0.00 | 0.00 | 56 | 1012.4 |
| 20260504220517 | 46 | 180 | 5.2 | 10.4 | 0.00 | 0.00 | 0.00 | 53 | 1012.2 |
| 20260504215517 | 48 | 158 | 4.3 | 7.8 | 0.00 | 0.00 | 0.00 | 49 | 1013.0 |
| 20260504214517 | 49 | 135 | 6.1 | 11.3 | 0.00 | 0.00 | 0.00 | 39 | 1013.1 |
| 20260504213517 | 49 | 0 | 5.2 | 8.7 | 0.00 | 0.00 | 0.00 | 39 | 1013.0 |
| 20260504212536 | 50 | 0 | 2.6 | 5.2 | 0.00 | 0.00 | 0.00 | 37 | 1013.6 |
| 20260504211516 | 51 | 68 | 2.6 | 9.6 | 0.00 | 0.00 | 0.00 | 35 | 1013.3 |
| 20260504210516 | 52 | 270 | 1.7 | 5.2 | 0.00 | 0.00 | 0.00 | 34 | 1013.3 |
| 20260504205517 | 52 | 158 | 0.9 | 5.2 | 0.00 | 0.00 | 0.00 | 36 | 1013.9 |
| 20260504204516 | 52 | 0 | 0.9 | 4.3 | 0.00 | 0.00 | 0.00 | 33 | 1014.8 |
| 20260504203517 | 51 | 0 | 1.7 | 5.2 | 0.00 | 0.00 | 0.00 | 34 | 1014.4 |
| 20260504202517 | 51 | 0 | 1.7 | 5.2 | 0.00 | 0.00 | 0.00 | 34 | 1014.5 |
| 20260504201517 | 51 | 45 | 2.6 | 7.8 | 0.00 | 0.00 | 0.00 | 36 | 1014.5 |
| 20260504200516 | 50 | 68 | 3.5 | 10.4 | 0.00 | 0.00 | 0.00 | 40 | 1014.6 |
| 20260504195516 | 48 | 113 | 4.3 | 13.9 | 0.00 | 0.00 | 0.00 | 46 | 1014.3 |
| 20260504194517 | 47 | 68 | 5.2 | 10.4 | 0.00 | 0.00 | 0.00 | 50 | 1014.0 |
| 20260504193517 | 45 | 0 | 6.1 | 14.8 | 0.00 | 0.00 | 0.00 | 56 | 1013.6 |
| 20260504192516 | 43 | 90 | 7.8 | 16.5 | 0.00 | 0.00 | 0.00 | 59 | 1012.5 |
| 20260504191516 | 44 | 0 | 6.1 | 15.6 | 0.00 | 0.00 | 0.00 | 55 | 1012.4 |
| 20260504190516 | 44 | 0 | 7.0 | 15.6 | 0.00 | 0.00 | 0.00 | 53 | 1012.8 |
| 20260504185516 | 46 | 0 | 7.0 | 14.8 | 0.00 | 0.00 | 0.00 | 49 | 1013.3 |
| 20260504184516 | 47 | 0 | 8.7 | 16.5 | 0.00 | 0.00 | 0.00 | 46 | 1013.1 |
| 20260504183536 | 48 | 0 | 5.2 | 13.0 | 0.00 | 0.00 | 0.00 | 43 | 1013.8 |
| 20260504182516 | 49 | 68 | 8.7 | 15.6 | 0.00 | 0.00 | 0.00 | 44 | 1014.6 |
| 20260504181516 | 48 | 113 | 1.7 | 8.7 | 0.00 | 0.00 | 0.00 | 42 | 1014.1 |
| 20260504180516 | 47 | 90 | 2.6 | 10.4 | 0.00 | 0.00 | 0.00 | 43 | 1014.3 |
| 20260504175516 | 48 | 0 | 4.3 | 10.4 | 0.00 | 0.00 | 0.00 | 43 | 1014.3 |
| 20260504174516 | 48 | 23 | 2.6 | 10.4 | 0.00 | 0.00 | 0.00 | 43 | 1014.3 |
| 20260504173516 | 48 | 0 | 0.9 | 3.5 | 0.00 | 0.00 | 0.00 | 42 | 1014.4 |
| 20260504172516 | 48 | 45 | 1.7 | 4.3 | 0.00 | 0.00 | 0.00 | 43 | 1014.6 |
| 20260504171516 | 48 | 68 | 3.5 | 8.7 | 0.00 | 0.00 | 0.00 | 41 | 1014.7 |
| 20260504170516 | 48 | 68 | 2.6 | 7.8 | 0.00 | 0.00 | 0.00 | 42 | 1014.7 |
| 20260504150516 | 43 | 0 | 2.6 | 6.1 | 0.00 | 0.00 | 0.00 | 46 | 1014.4 |
| 20260504140515 | 42 | 270 | 0.9 | 2.6 | 0.00 | 0.00 | 0.00 | 40 | 1014.6 |
| 20260504130517 | 41 | 0 | 2.6 | 7.0 | 0.00 | 0.00 | 0.00 | 37 | 1015.9 |
| 20260504110517 | 42 | 0.0 | 0.9 | 0.00 | 0.00 | 0.00 | 32 | 1016.2 | |
| 20260504100517 | 42 | 0.0 | 0.0 | 0.00 | 0.00 | 0.00 | 33 | 1015.8 | |
| 20260504081515 | 44 | 68 | 4.3 | 7.0 | 0.00 | 0.00 | 0.00 | 30 | 1017.2 |
| 20260504080515 | 44 | 68 | 3.5 | 7.0 | 0.00 | 0.00 | 0.00 | 31 | 1017.4 |
| 20260504050515 | 42 | 270 | 0.9 | 1.7 | 0.00 | 0.00 | 0.00 | 42 | 1017.5 |
| 20260504045536 | 43 | 0.0 | 0.9 | 0.00 | 0.00 | 0.00 | 42 | 1017.6 | |
| 20260504044515 | 43 | 270 | 1.7 | 2.6 | 0.00 | 0.00 | 0.00 | 42 | 1017.6 |
| 20260504043516 | 43 | 270 | 2.6 | 3.5 | 0.00 | 0.00 | 0.00 | 42 | 1017.8 |
| 20260504042515 | 43 | 270 | 2.6 | 3.5 | 0.00 | 0.00 | 0.00 | 42 | 1017.2 |
| 20260504041515 | 43 | 270 | 2.6 | 3.5 | 0.00 | 0.00 | 0.00 | 42 | 1017.3 |
| 20260504040515 | 43 | 248 | 2.6 | 6.1 | 0.00 | 0.00 | 0.00 | 43 | 1017.3 |
| 20260504035535 | 43 | 203 | 2.6 | 4.3 | 0.00 | 0.00 | 0.00 | 43 | 1017.4 |
| 20260504034515 | 43 | 203 | 0.9 | 2.6 | 0.00 | 0.00 | 0.00 | 42 | 1017.4 |
| 20260504033515 | 43 | 203 | 1.7 | 3.5 | 0.00 | 0.00 | 0.00 | 45 | 1017.5 |
| 20260504032515 | 43 | 0.0 | 1.7 | 0.00 | 0.00 | 0.00 | 44 | 1015.7 | |
| 20260504031517 | 43 | 270 | 1.7 | 2.6 | 0.00 | 0.00 | 0.00 | 46 | 1016.3 |
| 20260504030517 | 43 | 293 | 0.9 | 2.6 | 0.00 | 0.00 | 0.00 | 46 | 1016.3 |
| 20260504025517 | 43 | 0 | 2.6 | 7.0 | 0.00 | 0.00 | 0.00 | 47 | 1015.7 |
| 20260504024517 | 43 | 0 | 2.6 | 7.0 | 0.00 | 0.00 | 0.00 | 47 | 1015.5 |
| 20260504023517 | 43 | 0 | 2.6 | 5.2 | 0.00 | 0.00 | 0.00 | 47 | 1015.6 |